[[{"header":{"parameterUnit":"m.s-1","parameterCategory":1,"la1":30.2991,"la2":30.254,"lo1":-89.0895,"lo2":-89.0444,"dy":0.0017,"dx":0.0017,"nx":28,"ny":28,"refTime":"2024-04-16T03:00:00:Z","depth":0,"parameterNumber":2,"parameterNumberName":"U-component_of_WINDS"},"data":[0,0,0,0,0,0,0,0,0,0,0,0,0,0,0,0,0,0,0,0,0,0,0,0,0,0,0,0,0,0,0,0,0,0,0,0,0,0,0,0,0,0,0,0,0,0,0,0,0,0,0,0,0,0,0,0,0,0,-1.9306,-1.9307,0,-1.9446,-1.9448,-1.945,-1.9495,-1.9495,-1.9494,-1.9494,-1.9641,-1.9645,-1.965,0,0,0,0,0,0,0,0,0,0,0,0,0,-1.908,-1.9084,-1.9306,-1.9307,-1.9309,-1.9446,-1.9448,-1.945,-1.9496,-1.9495,-1.9494,-1.9493,-1.9639,-1.9645,-1.965,0,0,0,0,0,0,0,0,0,0,0,0,0,-1.9195,-1.9085,-1.9305,-1.9348,-1.9354,-1.9446,-1.9448,-1.9451,-1.9496,-1.9495,-1.9494,-1.9493,-1.9638,-1.9644,-1.9651,-1.9712,0,0,-1.9672,-1.9675,0,0,0,0,0,0,0,0,-1.9189,-1.9204,-1.934,-1.9346,-1.9352,-1.9452,-1.9423,-1.9538,-1.9496,-1.9442,-1.9494,-1.9492,-1.9579,-1.9591,-1.9619,-1.9719,-1.9725,-1.9672,-1.9676,-1.9679,-1.9681,0,0,0,0,0,0,0,-1.9181,-1.9198,-1.9362,-1.9342,-1.9349,-1.9362,-1.9377,-1.9445,-1.9514,-1.9446,-1.945,-1.9466,-1.9582,-1.9613,-1.9623,-1.9727,-1.9672,-1.9678,-1.9682,-1.9685,-1.9884,-1.9885,0,0,0,0,0,0,-1.9165,-1.9191,-1.9357,-1.9366,-1.9266,-1.9367,-1.9384,-1.9421,-1.9514,-1.9527,-1.9467,-1.9468,-1.9602,-1.9615,-1.9628,-1.9705,-1.9679,-1.9685,-1.9689,-1.9883,-1.9884,-1.9886,0,0,0,0,0,0,-1.916,-1.9179,-1.9351,-1.9279,-1.9302,-1.9371,-1.9413,-1.9424,-1.9455,-1.9529,-1.9542,-1.9485,-1.9601,-1.9619,-1.9691,-1.9711,-1.9689,-1.9695,-1.9881,-1.9883,-1.9885,-1.986,0,0,0,0,0,0,-1.9153,-1.9177,-1.92,-1.9279,-1.9306,-1.941,-1.9414,-1.9428,-1.9466,-1.9468,-1.9549,-1.9562,-1.9602,-1.968,-1.9697,-1.972,-1.97,-1.988,-1.9882,-1.9884,-1.9859,-1.9861,-1.9862,0,0,0,0,0,-1.9145,-1.9188,-1.9201,-1.9221,-1.9336,-1.9411,-1.9426,-1.947,-1.9467,-1.9491,-1.9539,-1.9559,-1.9706,-1.9687,-1.9707,-1.9732,-1.9879,-1.9882,-1.9884,-1.9859,-1.986,-1.9862,0,0,0,0,0,0,-1.911,-1.9199,-1.9214,-1.9284,-1.934,-1.9418,-1.945,-1.9471,-1.9529,-1.9529,-1.9583,-1.9601,-1.9668,-1.9708,-1.9685,-1.9796,-1.9794,-1.98,-1.9767,-1.977,-1.9771,-1.976,-1.9706,0,0,0,0,0,-1.9111,-1.9163,-1.9239,-1.9293,-1.932,-1.938,-1.9415,-1.9444,-1.9504,-1.9528,-1.9581,-1.9639,-1.9699,-1.9737,-1.9796,-1.9866,-1.9884,-1.9893,-1.9894,-1.9895,-1.99,-1.994,-1.9945,-1.9895,-1.9895,-1.9895,0,0,-1.9112,-1.9167,-1.9197,-1.9288,-1.9334,-1.9388,-1.9399,-1.9456,-1.9497,-1.9537,-1.9607,-1.9648,-1.9717,-1.9788,-1.9822,-1.9823,-1.9918,-1.9899,-1.9899,-1.9903,-1.9943,-1.9948,-1.9952,-1.9897,-1.9896,-1.9896,0,0,-1.9142,-1.9189,-1.9239,-1.9285,-1.9355,-1.9395,-1.9407,-1.9483,-1.9511,-1.9583,-1.9613,-1.9664,-1.9765,-1.9813,-1.985,-1.9899,-1.992,-1.9917,-1.9924,-1.9963,-1.9966,-1.997,-1.9987,-1.9993,-1.9922,-1.9922,-1.9922,0,-1.9136,-1.9217,-1.9263,-1.9318,-1.9357,-1.9395,-1.9446,-1.9489,-1.9575,-1.9602,-1.9601,-1.9729,-1.9778,-1.9861,-1.9873,-1.9902,-1.9918,-1.9908,-1.9962,-1.9966,-1.9971,-1.9987,-1.9994,-1.9921,-1.9921,-1.9922,-1.9922,0,-1.9205,-1.9261,-1.9294,-1.9374,-1.9417,-1.947,-1.9525,-1.9564,-1.959,-1.963,-1.9703,-1.9763,-1.9835,-1.9857,-1.9883,-1.9944,-1.9942,-1.9951,-1.995,-1.9974,-1.999,-1.9997,-1.992,-1.992,-1.9921,-1.9921,0,0,-1.9217,-1.9321,-1.9333,-1.9369,-1.9449,-1.9494,-1.955,-1.9619,-1.9651,-1.9709,-1.9757,-1.9842,-1.9851,-1.9894,-1.9927,-1.996,-1.9995,-1.9966,-1.9968,-1.9969,-2.0065,-2.0057,-2.0063,-2.001,-2.0011,-2.0012,-2.0059,0,-1.9256,-1.9355,-1.9398,-1.9478,-1.9531,-1.9568,-1.9616,-1.9671,-1.9711,-1.9762,-1.9807,-1.9866,-1.9874,-1.9899,-1.9935,-1.9983,-2.0015,-1.9981,-2.0056,-2.0058,-2.0036,-2.0072,-2.0064,-2.0105,-2.0066,-2.0067,-2.0068,0,-1.9316,-1.9372,-1.9457,-1.953,-1.9554,-1.9597,-1.9663,-1.9712,-1.9776,-1.9802,-1.985,-1.9881,-1.9942,-1.9937,-2.0022,-1.9998,-2.0031,-2.006,-2.0063,-2.0071,-2.0063,-2.008,-2.0119,-2.0125,-2.0079,-2.0078,-2.0077,0,-1.9314,-1.9413,-1.9476,-1.9506,-1.9594,-1.9623,-1.9661,-1.9723,-1.9762,-1.9821,-1.9847,-1.9913,-1.9949,-2.0,-2.0049,-2.0041,-2.0129,-2.0129,-2.0153,-2.0152,-2.0169,-2.0167,-2.0213,-2.0192,-2.0192,-2.0192,-2.0192,0,-1.9354,-1.9404,-1.9476,-1.9515,-1.9572,-1.9623,-1.9679,-1.972,-1.9775,-1.9823,-1.9861,-1.9905,-1.9967,-2.002,-2.0059,-2.0123,-2.014,-2.0163,-2.0173,-2.0159,-2.0156,-2.0181,-2.0179,-2.0194,-2.0194,-2.0193,-2.0193,0,-1.9362,-1.9412,-1.9483,-1.956,-1.9581,-1.962,-1.9686,-1.9726,-1.9767,-1.9828,-1.9845,-1.991,-1.9975,-2.0028,-2.0114,-2.014,-2.0207,-2.0218,-2.0184,-2.0189,-2.0211,-2.0208,-2.0274,-2.0285,-2.0257,-2.0257,-2.0257,0,-1.9383,-1.9422,-1.9503,-1.9537,-1.9574,-1.9629,-1.9668,-1.972,-1.976,-1.9835,-1.9866,-1.9933,-1.9989,-2.009,-2.0146,-2.0212,-2.0225,-2.0243,-2.0235,-2.022,-2.0225,-2.0221,-2.0225,-2.0244,-2.0244,-2.0244,-2.0244,0,-1.9415,-1.9438,-1.9493,-1.9556,-1.9602,-1.9655,-1.9709,-1.9735,-1.9797,-1.984,-1.9905,-1.9949,-2.0035,-2.0101,-2.0173,-2.0214,-2.0239,-2.0246,-2.0255,-2.0241,-2.022,-2.0231,-2.0185,-2.0244,-2.0244,-2.0244,-2.0244,-2.0244,-1.9431,-1.9467,-1.9529,-1.9589,-1.9634,-1.9684,-1.9725,-1.9771,-1.9826,-1.9899,-1.9927,-1.9994,-2.0058,-2.0156,-2.0197,-2.0251,-2.0254,-2.0268,-2.0271,-2.0273,-2.0271,-2.0212,-2.0265,-2.0265,-2.0265,-2.0265,-2.0265,0,-1.9464,-1.9506,-1.956,-1.9634,-1.9681,-1.97,-1.9761,-1.9799,-1.9857,-1.9914,-1.9968,-2.0043,-2.0108,-2.0169,-2.0237,-2.0268,-2.0282,-2.0284,-2.0282,-2.0291,-2.0265,-2.0249,-2.0272,-2.0272,-2.0272,-2.0272,-2.0272,-2.0272,-1.9487,-1.955,-1.958,-1.9666,-1.9708,-1.9772,-1.9805,-1.9852,-1.9897,-1.9979,-2.0032,-2.0071,-2.013,-2.0202,-2.0262,-2.0279,-2.0302,-2.0301,-2.0321,-2.0295,-2.0293,-2.0292,-2.0278,-2.0306,-2.0306,-2.0343,-2.0343,-2.0344]},{"header":{"parameterUnit":"m.s-1","parameterCategory":1,"la1":30.2991,"la2":30.254,"lo1":-89.0895,"lo2":-89.0444,"dy":0.0017,"dx":0.0017,"nx":28,"ny":28,"refTime":"2024-04-16T03:00:00:Z","depth":0,"parameterNumber":3,"parameterNumberName":"V-component_of_WINDS"},"data":[0,0,0,0,0,0,0,0,0,0,0,0,0,0,0,0,0,0,0,0,0,0,0,0,0,0,0,0,0,0,0,0,0,0,0,0,0,0,0,0,0,0,0,0,0,0,0,0,0,0,0,0,0,0,0,0,0,0,3.6924,3.6924,0,3.6927,3.6927,3.6927,3.6875,3.6874,3.6873,3.6871,3.6874,3.6876,3.6877,0,0,0,0,0,0,0,0,0,0,0,0,0,3.6875,3.6877,3.6924,3.6924,3.6924,3.6927,3.6927,3.6927,3.6876,3.6874,3.6872,3.6871,3.6874,3.6875,3.6877,0,0,0,0,0,0,0,0,0,0,0,0,0,3.6889,3.6877,3.6924,3.6899,3.6897,3.6927,3.6927,3.6927,3.6876,3.6874,3.6872,3.687,3.6873,3.6875,3.6877,3.6932,0,0,3.6884,3.6884,0,0,0,0,0,0,0,0,3.6889,3.6891,3.6903,3.6901,3.6898,3.6899,3.6911,3.6929,3.6877,3.6884,3.6871,3.6869,3.6884,3.6885,3.689,3.6932,3.6932,3.6884,3.6885,3.6886,3.6886,0,0,0,0,0,0,0,3.6888,3.6891,3.6925,3.6903,3.69,3.6888,3.6888,3.6914,3.6896,3.6883,3.6879,3.688,3.6882,3.6888,3.689,3.6932,3.6884,3.6885,3.6887,3.6888,3.702,3.7023,0,0,0,0,0,0,3.689,3.689,3.6925,3.6925,3.6888,3.689,3.689,3.6901,3.6895,3.6892,3.6882,3.6878,3.6886,3.6888,3.689,3.6954,3.6886,3.6888,3.6889,3.7018,3.7021,3.7023,0,0,0,0,0,0,3.6889,3.6894,3.6925,3.6907,3.691,3.6893,3.6906,3.6902,3.6908,3.6895,3.6891,3.6891,3.6884,3.6887,3.6922,3.6953,3.6889,3.6891,3.7015,3.7019,3.7022,3.7083,0,0,0,0,0,0,3.6888,3.6894,3.6914,3.6908,3.6911,3.6957,3.6908,3.6903,3.6911,3.6906,3.6902,3.69,3.6883,3.6919,3.6924,3.6955,3.6892,3.7012,3.7017,3.7021,3.7078,3.7088,3.7097,0,0,0,0,0,3.6887,3.6931,3.6915,3.692,3.6936,3.6959,3.6961,3.6941,3.6914,3.6934,3.6926,3.69,3.6949,3.6923,3.6928,3.696,3.701,3.7016,3.7021,3.7074,3.7086,3.7096,0,0,0,0,0,0,3.694,3.6929,3.6912,3.6955,3.6959,3.695,3.6975,3.6954,3.6965,3.6959,3.6933,3.6933,3.6973,3.697,3.6941,3.7014,3.6975,3.6982,3.7014,3.7025,3.7035,3.7034,3.6894,0,0,0,0,0,3.6957,3.6977,3.6966,3.7005,3.7008,3.6992,3.7001,3.6985,3.6987,3.6988,3.6983,3.6986,3.7003,3.7014,3.7028,3.7078,3.7077,3.7102,3.7112,3.7119,3.7125,3.7152,3.7164,3.704,3.704,3.704,0,0,3.6992,3.6989,3.7002,3.7016,3.7017,3.7038,3.6993,3.7017,3.7033,3.6992,3.7025,3.7021,3.7024,3.7067,3.7085,3.7066,3.7159,3.7126,3.7132,3.7134,3.7159,3.7171,3.7181,3.7044,3.7043,3.7043,0,0,3.7067,3.7066,3.7099,3.7101,3.7103,3.7092,3.7101,3.7096,3.7092,3.7125,3.7095,3.7114,3.7142,3.7146,3.7151,3.7229,3.7206,3.7235,3.7283,3.731,3.732,3.7328,3.7357,3.7368,3.7241,3.7241,3.7241,0,3.711,3.7141,3.7119,3.7146,3.7153,3.7118,3.7152,3.7155,3.7161,3.7167,3.7145,3.7182,3.718,3.7224,3.7244,3.7249,3.7258,3.7235,3.732,3.7328,3.7336,3.7363,3.7374,3.7244,3.7244,3.7244,3.7243,0,3.7195,3.7217,3.7243,3.7251,3.7261,3.7292,3.7275,3.7288,3.7272,3.7264,3.7299,3.7296,3.731,3.732,3.7304,3.7362,3.735,3.7325,3.7285,3.7352,3.7377,3.7387,3.7249,3.7248,3.7247,3.7246,0,0,3.7302,3.7299,3.7309,3.7313,3.7313,3.733,3.7359,3.7373,3.7385,3.7391,3.7416,3.7442,3.7419,3.7425,3.741,3.7433,3.7497,3.7405,3.7405,3.7423,3.7562,3.7581,3.7594,3.7481,3.7483,3.7485,3.7562,0,3.7375,3.7425,3.7407,3.7457,3.7478,3.7446,3.7471,3.7475,3.7469,3.7485,3.7478,3.7497,3.7465,3.7469,3.7491,3.7484,3.7524,3.7479,3.7504,3.7506,3.7505,3.7607,3.7627,3.77,3.7572,3.7573,3.7574,0,3.7467,3.7478,3.7531,3.7529,3.7537,3.756,3.7573,3.7589,3.7593,3.7587,3.7595,3.7575,3.7604,3.7565,3.7606,3.7575,3.7585,3.7583,3.7586,3.7587,3.7544,3.7611,3.7722,3.7734,3.759,3.7588,3.7587,0,3.7541,3.7569,3.7604,3.7609,3.7607,3.7625,3.7625,3.7627,3.7637,3.7648,3.7654,3.7668,3.7676,3.7688,3.7673,3.7646,3.7716,3.7675,3.7712,3.7713,3.7728,3.7727,3.7843,3.7734,3.7734,3.7734,3.7734,0,3.7625,3.7659,3.7638,3.766,3.7697,3.7677,3.7715,3.7711,3.7714,3.7735,3.7708,3.7729,3.7707,3.7726,3.7714,3.775,3.7754,3.775,3.7747,3.7753,3.7753,3.7759,3.7753,3.7737,3.7736,3.7735,3.7735,0,3.7713,3.7701,3.7738,3.7734,3.7734,3.7762,3.7759,3.778,3.7772,3.78,3.7805,3.7793,3.7814,3.78,3.7821,3.7813,3.7861,3.785,3.7859,3.7857,3.7894,3.7891,3.8017,3.8033,3.7914,3.7915,3.7916,0,3.7768,3.7793,3.7793,3.7806,3.7808,3.7828,3.7839,3.782,3.7832,3.7839,3.786,3.7878,3.7892,3.7928,3.7921,3.7938,3.7927,3.797,3.793,3.7935,3.7929,3.7928,3.7931,3.7979,3.798,3.7981,3.7982,0,3.7866,3.7859,3.7875,3.789,3.7904,3.7914,3.7922,3.7934,3.7916,3.7931,3.7952,3.7963,3.7985,3.8005,3.8019,3.802,3.7999,3.7995,3.8005,3.8011,3.8016,3.8015,3.7882,3.7992,3.7991,3.799,3.799,3.799,3.794,3.7962,3.7965,3.7985,3.7989,3.7998,3.8018,3.8013,3.8031,3.8047,3.8035,3.8061,3.8066,3.8082,3.8086,3.8107,3.8089,3.8103,3.8106,3.811,3.8116,3.8013,3.8109,3.8109,3.8108,3.8108,3.8108,0,3.8037,3.8038,3.8057,3.807,3.8085,3.8064,3.8073,3.8087,3.8111,3.8117,3.8132,3.8157,3.8176,3.8172,3.8189,3.8207,3.8198,3.8212,3.8211,3.8212,3.813,3.812,3.8219,3.8219,3.8219,3.8219,3.8219,3.8219,3.809,3.8126,3.812,3.8159,3.8159,3.8185,3.8192,3.82,3.8205,3.8235,3.8251,3.8248,3.825,3.8268,3.8285,3.8283,3.8291,3.831,3.8305,3.8228,3.8217,3.8207,3.8197,3.8311,3.8312,3.8385,3.8385,3.8386]}]]